KC8RP Weather Reports


Display with metric or nautical units.
time (UTC)temp
F
wind
direction
speed
MPH
gust
MPH
rain 1hr
in
rain 24hr
in
rain mn
in
humidity
%
barometer
mb
20260902203013 94 207 2.0 9.0 0.00 0.00 0.00 53 1012.2
20260902201511 94 253 1.0 5.0 0.00 0.00 0.00 55 1012.3
20260902200009 95 182 2.0 7.0 0.00 0.00 0.00 54 1012.3
20260902194508 96 213 2.0 10.0 0.00 0.00 0.00 53 1012.5
20260902193005 96 217 2.0 9.0 0.00 0.00 0.00 52 1012.7
20260902191503 96 262 4.0 10.0 0.00 0.00 0.00 52 1013.0
20260902184603 96 247 4.0 11.0 0.00 0.00 0.00 51 1013.1
20260902183136 95 197 2.0 10.0 0.00 0.00 0.00 51 1013.2
20260902181604 95 200 5.0 14.0 0.00 0.00 0.00 52 1013.2
20260902180052 94 265 4.0 13.0 0.00 0.00 0.00 55 1013.5
20260902174550 94 228 3.0 12.0 0.00 0.00 0.00 54 1013.6
20260902173055 94 273 4.0 8.0 0.00 0.00 0.00 55 1013.8
20260902171547 93 296 2.0 10.0 0.00 0.00 0.00 55 1013.9
20260902170045 93 200 3.0 8.0 0.00 0.00 0.00 57 1014.1
20260902164545 93 216 2.0 8.0 0.00 0.00 0.00 61 1014.3
20260902163032 0 0.0 0.0 0.00 0.00 0.00 1014.4
20260902160045 90 188 2.0 8.0 0.00 0.00 0.00 65 1014.2
20260902154546 89 321 3.0 9.0 0.00 0.00 0.00 65 1014.4
20260902153028 88 298 0.0 8.0 0.00 0.00 0.00 68 1014.5
20260902151531 86 232 2.0 6.0 0.00 0.00 0.00 71 1014.6
20260902150020 85 290 2.0 6.0 0.00 0.00 0.00 72 1014.6
20260902144515 84 267 2.0 8.0 0.00 0.00 0.00 73 1014.6
20260902143012 83 264 0.0 7.0 0.00 0.00 0.00 73 1014.6
20260902141509 82 269 2.0 8.0 0.00 0.00 0.00 75 1014.6
20260902140009 81 215 2.0 7.0 0.00 0.00 0.00 76 1014.5
20260902134502 80 251 2.0 5.0 0.00 0.00 0.00 78 1014.6
20260902133058 78 234 2.0 7.0 0.00 0.00 0.00 81 1014.6
20260902131608 77 261 1.0 4.0 0.00 0.00 0.00 85 1014.5
20260902130059 74 221 1.0 5.0 0.00 0.00 0.00 88 1014.5
20260902124553 73 215 0.0 3.0 0.00 0.00 0.00 92 1014.5
20260902123051 72 215 0.0 3.0 0.00 0.00 0.00 92 1014.4
20260902121550 72 360 0.0 0.0 0.00 0.00 0.00 91 1014.4
20260902120049 71 360 0.0 0.0 0.00 0.00 0.00 90 1014.4
20260902114606 71 360 0.0 0.0 0.00 0.00 0.00 90 1014.1
20260902113043 71 360 0.0 0.0 0.00 0.00 0.00 89 1013.9
20260902111543 71 360 0.0 0.0 0.00 0.00 0.00 89 1013.8
20260902110047 71 360 0.0 0.0 0.00 0.00 0.00 89 1013.7
20260902104542 71 360 0.0 0.0 0.00 0.00 0.00 88 1013.7
20260902103042 71 360 0.0 0.0 0.00 0.00 0.00 88 1013.8
20260902101544 72 360 0.0 0.0 0.00 0.00 0.00 88 1013.7
20260902100035 72 360 0.0 0.0 0.00 0.00 0.00 87 1013.7
20260902094532 72 360 0.0 0.0 0.00 0.00 0.00 87 1013.6
20260902093038 72 360 0.0 0.0 0.00 0.00 0.00 87 1013.6
20260902091531 72 360 0.0 0.0 0.00 0.00 0.00 87 1013.5
20260902090029 73 360 0.0 0.0 0.00 0.00 0.00 87 1013.5
20260902084529 73 360 0.0 0.0 0.00 0.00 0.00 87 1013.3
20260902083034 73 360 0.0 0.0 0.00 0.00 0.00 87 1013.0
20260902081538 73 360 0.0 0.0 0.00 0.00 0.00 87 1013.0
20260902080027 73 360 0.0 0.0 0.00 0.00 0.00 87 1012.9
20260902074524 73 360 0.0 0.0 0.00 0.00 0.00 87 1012.9
20260902073029 73 360 0.0 0.0 0.00 0.00 0.00 86 1012.9
20260902071521 73 360 0.0 0.0 0.00 0.00 0.00 86 1012.8
20260902070021 73 360 0.0 0.0 0.00 0.00 0.00 86 1012.9
20260902064519 73 360 0.0 0.0 0.00 0.00 0.00 85 1012.9
20260902063018 74 360 0.0 0.0 0.00 0.00 0.00 85 1012.9
20260902061515 74 360 0.0 0.0 0.00 0.00 0.00 85 1012.9
20260902060017 74 360 0.0 0.0 0.00 0.00 0.00 84 1013.0
20260902054521 75 360 0.0 0.0 0.00 0.00 0.00 84 1012.9
20260902053014 75 360 0.0 0.0 0.00 0.00 0.00 84 1013.0
20260902051510 75 360 0.0 0.0 0.00 0.00 0.00 83 1013.0
20260902050009 76 360 0.0 0.0 0.00 0.00 0.00 83 1013.0
20260902044507 76 360 0.0 0.0 0.00 0.00 0.00 82 1013.0
20260902043007 76 360 0.0 0.0 0.00 0.00 0.00 82 1012.9
20260902041502 77 360 0.0 0.0 0.00 0.00 0.00 81 1013.0
20260902040104 78 360 0.0 0.0 0.00 0.00 0.00 79 1013.0
20260902034601 78 360 0.0 0.0 0.00 0.00 0.00 79 1013.0
20260902033106 79 360 0.0 0.0 0.00 0.00 0.00 77 1013.0
20260902031558 80 215 0.0 0.0 0.00 0.00 0.00 75 1012.9
20260902030059 81 215 0.0 0.0 0.00 0.00 0.00 74 1012.9
20260902024601 82 215 0.0 0.0 0.00 0.00 0.00 71 1012.9
20260902023057 83 215 0.0 2.0 0.00 0.00 0.00 70 1012.8
20260902021557 84 215 0.0 3.0 0.00 0.00 0.00 68 1012.9
20260902020059 84 214 1.0 5.0 0.00 0.00 0.00 67 1012.7
20260902014557 85 221 1.0 3.0 0.00 0.00 0.00 67 1012.7
20260902013056 84 221 1.0 3.0 0.00 0.00 0.00 68 1012.6
20260902011555 83 221 1.0 2.0 0.00 0.00 0.00 70 1012.4
20260902010055 83 221 0.0 1.0 0.00 0.00 0.00 71 1012.3
20260902004555 84 221 0.0 1.0 0.00 0.00 0.00 70 1012.3
20260902003058 85 221 0.0 0.0 0.00 0.00 0.00 68 1012.3
20260902001552 87 221 0.0 1.0 0.00 0.00 0.00 66 1012.4
20260902000113 88 221 0.0 2.0 0.00 0.00 0.00 63 1012.5
20260901234551 89 221 0.0 3.0 0.00 0.00 0.00 61 1012.5
20260901233052 90 222 1.0 3.0 0.00 0.00 0.00 58 1012.6
20260901231552 91 216 0.0 4.0 0.00 0.00 0.00 55 1012.6
20260901230104 92 229 1.0 4.0 0.00 0.00 0.00 54 1012.7
20260901224550 92 201 2.0 8.0 0.00 0.00 0.00 53 1012.6
20260901223059 93 229 2.0 7.0 0.00 0.00 0.00 52 1012.5
20260901221550 94 265 2.0 11.0 0.00 0.00 0.00 53 1012.5
20260901220111 94 229 2.0 9.0 0.00 0.00 0.00 52 1012.4
20260901214547 94 210 1.0 8.0 0.00 0.00 0.00 51 1012.5
20260901213111 94 267 2.0 8.0 0.00 0.00 0.00 53 1012.5
20260901211548 95 227 3.0 7.0 0.00 0.00 0.00 52 1012.5
20260901210057 95 209 3.0 7.0 0.00 0.00 0.00 51 1012.5
20260901204544 95 246 4.0 9.0 0.00 0.00 0.00 50 1012.6